Location: Poughquag
(41.6090°N, 73.6820°W)
Time: 22:10:47
(UTC-05:00)

N. Korean satellite - Pass Details

Date: 03 February 2021
Orbit: 451 x 503 km, 97.2° (Epoch: 24 February)

Event Time Altitude Azimuth Distance (km) Brightness Sun altitude
Rises 05:07:54 0° 16° (NNE) 2,476 10.3 -22.0°
Reaches altitude 10° 05:09:59 10° 21° (NNE) 1,594 9.4 -21.6°
Maximum altitude 05:13:20 54° 100° (E) 553 7.1 -21.0°
Drops below altitude 10° 05:16:39 10° 179° (S) 1,577 9.2 -20.4°
Sets 05:18:42 0° 184° (S) 2,446 10.2 -20.0°
